Weather History for Mt. Pocono, PA

Change the Weather History Date:

Thursday, May 23, 2013

  Actual Average Record
Temperature  
Mean Temperature 65 °F 57 °F  
Max Temperature 71 °F 67 °F 89 °F (1911)
Min Temperature 58 °F 47 °F 30 °F (1993)
Degree Days  
Heating Degree Days 0 9  
Month to date heating degree days 222 261  
Since 1 July heating degree days 6667 6955  
Cooling Degree Days 0 1  
Month to date cooling degree days 13 5  
Year to date cooling degree days 14 9  
Growing Degree Days 14 (Base 50)    
Moisture  
Dew Point 61 °F    
Average Humidity 83    
Maximum Humidity 93    
Minimum Humidity 73    
Precipitation  
Precipitation 0.73 in 0.18 in 2.20 in (1942)
Month to date precipitation 3.66 3.02  
Year to date precipitation 13.15 16.13  
Sea Level Pressure  
Sea Level Pressure 29.84 in    
Wind  
Wind Speed 8 mph (SW)    
Max Wind Speed 17 mph    
Max Gust Speed 23 mph    
Visibility 7 miles    
Events Rain    
T = Trace of Precipitation, MM = Missing Value Source: NWS Daily Summary

Daily Weather History Graph

Daily Weather History Graph

Search for Another Location

Airport:

Trip Planner

Search our weather history database for the weather conditions in past years. The results will help you decide how hot, cold, wet, or windy it might be!

Date:

Astronomy

May. 23, 2013 Rise Set
Actual Time 5:36 AM EDT 8:20 PM EDT
Civil Twilight 5:04 AM EDT 8:52 PM EDT
Nautical Twilight 4:23 AM EDT 9:33 PM EDT
Astronomical Twilight 3:37 AM EDT 10:19 PM EDT
Moon 6:49 PM EDT (5/23) 4:20 AM EDT (5/23)
Length of Visible Light 15h 48m
Length of Day
14h 44m
Waxing Gibbous, 97% of the Moon is Illuminated
May 23
Waxing Gibbous
May 25
Full
May 31
Last Quarter
Jun 8
New
Jun 16
First Quarter

Hourly Weather History & Observations

Time (EDT) Temp. Dew Point Humidity Pressure Visibility Wind Dir Wind Speed Gust Speed Precip Events Conditions
12:53 AM 60.1 °F 57.9 °F 93% 29.89 in 9.0 mi Calm Calm - N/A   Clear
1:18 AM 59.0 °F 57.2 °F 94% 29.90 in 2.5 mi Calm Calm - N/A   Clear
1:27 AM 59.0 °F 57.2 °F 94% 29.90 in 4.0 mi Calm Calm - N/A   Clear
1:53 AM 61.0 °F 57.9 °F 90% 29.86 in 10.0 mi SSW 3.5 mph - N/A   Clear
2:53 AM 62.1 °F 59.0 °F 90% 29.84 in 10.0 mi SSW 3.5 mph - N/A   Clear
3:53 AM 62.1 °F 59.0 °F 90% 29.83 in 10.0 mi South 4.6 mph - N/A   Clear
4:53 AM 62.1 °F 59.0 °F 90% 29.85 in 10.0 mi WSW 5.8 mph - N/A   Clear
5:53 AM 62.1 °F 60.1 °F 93% 29.86 in 8.0 mi SW 6.9 mph - N/A   Clear
6:53 AM 64.0 °F 60.1 °F 87% 29.87 in 10.0 mi WSW 6.9 mph - N/A   Clear
7:53 AM 64.9 °F 61.0 °F 87% 29.87 in 10.0 mi SW 9.2 mph - N/A   Mostly Cloudy
8:53 AM 66.0 °F 61.0 °F 84% 29.87 in 10.0 mi SW 11.5 mph - 0.00 in   Overcast
9:07 AM 66.2 °F 62.6 °F 88% 29.91 in 10.0 mi WSW 8.1 mph - N/A   Overcast
9:35 AM 64.4 °F 62.6 °F 94% 29.91 in 6.0 mi SW 12.7 mph - N/A   Overcast
9:53 AM 64.9 °F 61.0 °F 87% 29.88 in 5.0 mi SW 6.9 mph - N/A   Overcast
10:27 AM 64.4 °F 60.8 °F 88% 29.92 in 6.0 mi SW 9.2 mph - N/A   Overcast
10:53 AM 64.9 °F 61.0 °F 87% 29.89 in 6.0 mi SW 10.4 mph - N/A   Overcast
11:53 AM 66.0 °F 61.0 °F 84% 29.89 in 8.0 mi WSW 11.5 mph - 0.00 in   Overcast
12:44 PM 69.8 °F 62.6 °F 78% 29.90 in 10.0 mi WSW 9.2 mph 18.4 mph N/A   Mostly Cloudy
12:53 PM 69.1 °F 61.0 °F 75% 29.88 in 10.0 mi WSW 9.2 mph - N/A   Mostly Cloudy
1:29 PM 69.8 °F 60.8 °F 73% 29.88 in 10.0 mi SW 8.1 mph 18.4 mph N/A   Mostly Cloudy
1:37 PM 69.8 °F 60.8 °F 73% 29.88 in 10.0 mi West 8.1 mph - N/A   Overcast
1:51 PM 69.8 °F 60.8 °F 73% 29.87 in 10.0 mi West 9.2 mph - N/A   Mostly Cloudy
1:53 PM 70.0 °F 60.1 °F 71% 29.85 in 10.0 mi SW 12.7 mph 17.3 mph N/A   Overcast
2:00 PM 69.8 °F 60.8 °F 73% 29.87 in 10.0 mi WSW 8.1 mph 17.3 mph N/A   Overcast
2:53 PM 68.0 °F 61.0 °F 78% 29.84 in 5.0 mi SW 6.9 mph - 0.02 in Rain Light Rain
3:53 PM 68.0 °F 64.0 °F 87% 29.82 in 5.0 mi SSW 8.1 mph - 0.01 in   Mostly Cloudy
4:08 PM 68.0 °F 64.4 °F 88% 29.84 in 5.0 mi SSW 8.1 mph - N/A   Mostly Cloudy
4:21 PM 69.8 °F 64.4 °F 83% 29.84 in 6.0 mi SSW 12.7 mph 16.1 mph N/A   Haze
4:53 PM 70.0 °F 63.0 °F 78% 29.81 in 9.0 mi SSW 11.5 mph 17.3 mph N/A   Mostly Cloudy
5:37 PM 69.8 °F 62.6 °F 78% 29.82 in 10.0 mi SSW 11.5 mph - N/A   Mostly Cloudy
5:53 PM 68.0 °F 62.1 °F 81% 29.81 in 9.0 mi SSW 9.2 mph - N/A   Scattered Clouds
6:53 PM 68.0 °F 63.0 °F 84% 29.79 in 6.0 mi South 5.8 mph - N/A   Haze
7:16 PM 66.2 °F 62.6 °F 88% 29.82 in 5.0 mi South 6.9 mph - N/A   Overcast
7:53 PM 66.0 °F 63.0 °F 90% 29.80 in 5.0 mi SSW 6.9 mph - N/A   Mostly Cloudy
8:16 PM 66.2 °F 62.6 °F 88% 29.83 in 6.0 mi South 5.8 mph - N/A   Mostly Cloudy
8:53 PM 64.9 °F 63.0 °F 93% 29.79 in 7.0 mi South 6.9 mph - N/A   Mostly Cloudy
9:00 PM 64.4 °F 62.6 °F 94% 29.80 in 7.0 mi South 5.8 mph - N/A   Mostly Cloudy
9:08 PM 64.4 °F 62.6 °F 94% 29.80 in 6.0 mi SSE 4.6 mph - N/A   Mostly Cloudy
9:15 PM 64.4 °F 62.6 °F 94% 29.79 in 6.0 mi SSE 5.8 mph - N/A   Overcast
9:24 PM 64.4 °F 62.6 °F 94% 29.80 in 5.0 mi SE 4.6 mph - 0.00 in Rain Light Rain
9:53 PM 64.9 °F 64.0 °F 97% 29.78 in 3.0 mi SSE 5.8 mph - 0.01 in Rain Light Rain
10:00 PM 64.4 °F 64.4 °F 100% 29.79 in 1.8 mi South 10.4 mph 16.1 mph 0.12 in Rain Heavy Rain
10:09 PM 64.4 °F 62.6 °F 94% 29.79 in 3.0 mi SSW 5.8 mph - 0.13 in Rain Light Rain
10:18 PM 60.8 °F 57.2 °F 88% 29.81 in 2.5 mi West 12.7 mph 23.0 mph 0.18 in Rain Rain
10:23 PM 60.8 °F 57.2 °F 88% 29.82 in 1.8 mi NW 9.2 mph - 0.24 in Rain Heavy Rain
10:51 PM 59.0 °F 57.2 °F 94% 29.80 in 1.8 mi WNW 10.4 mph - 0.50 in Rain Heavy Rain
10:53 PM 59.0 °F 57.0 °F 93% 29.79 in 1.8 mi WNW 10.4 mph - 0.53 in Rain Heavy Rain
11:09 PM 59.0 °F 57.2 °F 94% 29.79 in 3.0 mi WNW 9.2 mph - 0.10 in Rain Rain
11:53 PM 59.0 °F 57.0 °F 93% 29.76 in 10.0 mi Calm Calm - 0.13 in   Overcast